This is the latest recevied weather packets stored in our database for station/object OM5ZU-10. If no packets are shown the sender has not sent any weather packets the latest 10 day(s).
| Time | Temp. | Humidity | Pressure | Rain* | Wind** | Luminosity | Snow |
|---|---|---|---|---|---|---|---|
| 1788095199 | 32.78° C | 73% | 1015.2 hPa | - | - | - | - |
| 1788094299 | 32.78° C | 32% | 1015.4 hPa | - | - | - | - |
| 1788093398 | 32.22° C | 34% | 1015.5 hPa | - | - | - | - |
| 1788092498 | 32.22° C | 34% | 1015.6 hPa | - | - | - | - |
| 1788091598 | 32.78° C | 38% | 1015.7 hPa | - | - | - | - |
| 1788090698 | 31.67° C | 36% | 1015.8 hPa | - | - | - | - |
| 1788089798 | 32.78° C | 37% | 1016 hPa | - | - | - | - |
| 1788088898 | 30.56° C | 40% | 1016.2 hPa | - | - | - | - |
| 1788087997 | 30° C | 37% | 1016.4 hPa | - | - | - | - |
| 1788087097 | 30° C | 38% | 1016.6 hPa | - | - | - | - |
| 1788086197 | 30° C | 39% | 1016.6 hPa | - | - | - | - |
| 1788085297 | 30.56° C | 39% | 1016.8 hPa | - | - | - | - |
| 1788084397 | 30° C | 40% | 1016.9 hPa | - | - | - | - |
| 1788083497 | 29.44° C | 39% | 1016.9 hPa | - | - | - | - |
| 1788082597 | 30° C | 40% | 1017 hPa | - | - | - | - |
| 1788081696 | 30° C | 43% | 1017.1 hPa | - | - | - | - |
| 1788080796 | 29.44° C | 44% | 1017.2 hPa | - | - | - | - |
| 1788079896 | 29.44° C | 45% | 1017.2 hPa | - | - | - | - |
| 1788078996 | 28.89° C | 45% | 1017.3 hPa | - | - | - | - |
| 1788078096 | 27.78° C | 45% | 1017.3 hPa | - | - | - | - |
| 1788077196 | 28.89° C | 49% | 1017.4 hPa | - | - | - | - |
| 1788076295 | 27.22° C | 48% | 1017.4 hPa | - | - | - | - |
| 1788075395 | 26.67° C | 49% | 1017.4 hPa | - | - | - | - |
| 1788074495 | 26.11° C | 50% | 1017.4 hPa | - | - | - | - |
| 1788073595 | 26.67° C | 52% | 1017.3 hPa | - | - | - | - |
* Rain since midnight (hover to see other rain measurements)
** Current wind speed in m/s (hover to see current wind gust speed)